TimeCDT,TemperatureF,Dew PointF,Humidity,Sea Level PressureIn,VisibilityMPH,Wind Direction,Wind SpeedMPH,Gust SpeedMPH,PrecipitationIn,Events,Conditions,WindDirDegrees,DateUTC
12:53 AM,51.1,42.1,71,30.10,10.0,SSE,6.9,-,N/A,,Clear,160,2013-05-14 05:53:00
1:53 AM,52.0,43.0,71,30.09,10.0,South,6.9,-,N/A,,Clear,170,2013-05-14 06:53:00
2:53 AM,50.0,39.9,68,30.07,10.0,South,8.1,-,N/A,,Clear,170,2013-05-14 07:53:00
3:53 AM,50.0,39.9,68,30.06,10.0,SSE,8.1,-,N/A,,Clear,160,2013-05-14 08:53:00
4:53 AM,51.1,39.0,63,30.04,10.0,SSE,9.2,-,N/A,,Clear,160,2013-05-14 09:53:00
5:53 AM,52.0,39.9,63,30.03,10.0,SSE,8.1,-,N/A,,Clear,160,2013-05-14 10:53:00
6:53 AM,55.9,41.0,57,30.03,10.0,South,11.5,-,N/A,,Clear,170,2013-05-14 11:53:00
7:53 AM,61.0,43.0,52,30.01,10.0,South,17.3,20.7,N/A,,Clear,180,2013-05-14 12:53:00
8:53 AM,64.0,46.0,52,29.99,10.0,South,18.4,-,N/A,,Clear,190,2013-05-14 13:53:00
9:53 AM,69.1,50.0,51,29.97,8.0,South,13.8,-,N/A,,Mostly Cloudy,190,2013-05-14 14:53:00
10:53 AM,73.0,53.1,49,29.95,9.0,South,15.0,-,N/A,,Clear,190,2013-05-14 15:53:00
11:53 AM,77.0,55.9,48,29.93,9.0,South,17.3,-,N/A,,Clear,180,2013-05-14 16:53:00
12:53 PM,81.0,57.0,44,29.90,8.0,SSW,19.6,-,N/A,,Clear,200,2013-05-14 17:53:00
1:53 PM,82.9,57.0,41,29.88,9.0,SSW,21.9,29.9,N/A,,Clear,200,2013-05-14 18:53:00
2:53 PM,86.0,59.0,40,29.86,9.0,SSW,24.2,28.8,N/A,,Clear,200,2013-05-14 19:53:00
3:53 PM,86.0,57.9,38,29.84,9.0,SSW,21.9,31.1,N/A,,Clear,210,2013-05-14 20:53:00
4:53 PM,86.0,57.9,38,29.84,9.0,SW,20.7,27.6,N/A,,Clear,220,2013-05-14 21:53:00
5:53 PM,84.9,57.9,40,29.84,9.0,SW,17.3,25.3,N/A,,Clear,220,2013-05-14 22:53:00
6:53 PM,82.9,59.0,44,29.83,9.0,SSW,12.7,-,N/A,,Clear,210,2013-05-14 23:53:00
7:53 PM,78.1,59.0,52,29.83,5.0,SSW,11.5,-,N/A,,Haze,200,2013-05-15 00:53:00
8:53 PM,73.9,59.0,59,29.83,9.0,South,8.1,-,N/A,,Clear,190,2013-05-15 01:53:00
9:53 PM,73.9,59.0,59,29.85,9.0,SSW,11.5,-,N/A,,Clear,200,2013-05-15 02:53:00
10:53 PM,75.9,59.0,56,29.85,9.0,SW,15.0,-,N/A,,Clear,220,2013-05-15 03:53:00
11:53 PM,73.9,59.0,59,29.86,9.0,SW,13.8,-,N/A,,Clear,230,2013-05-15 04:53:00